Year,Month,Day,Hour,Minute,Value (Times are PST for windspeed in km/hr)
2015,10,09,00,00,2.40
2015,10,09,00,01,4.00
2015,10,09,00,02,3.70
2015,10,09,00,03,3.00
2015,10,09,00,04,4.20
2015,10,09,00,05,3.10
2015,10,09,00,06,4.50
2015,10,09,00,07,3.20
2015,10,09,00,08,1.60
2015,10,09,00,09,1.30
2015,10,09,00,10,4.00
2015,10,09,00,11,2.40
2015,10,09,00,12,1.30
2015,10,09,00,13,1.60
2015,10,09,00,14,1.90
2015,10,09,00,15,1.10
2015,10,09,00,16,1.70
2015,10,09,00,17,1.40
2015,10,09,00,18,3.10
2015,10,09,00,19,2.90
2015,10,09,00,20,2.50
2015,10,09,00,21,2.50
2015,10,09,00,22,0.40
2015,10,09,00,23,0.50
2015,10,09,00,24,2.30
2015,10,09,00,25,1.60
2015,10,09,00,26,1.40
2015,10,09,00,27,1.00
2015,10,09,00,28,2.00
2015,10,09,00,29,2.00
2015,10,09,00,30,2.30
2015,10,09,00,31,2.60
2015,10,09,00,32,1.90
2015,10,09,00,33,4.00
2015,10,09,00,34,2.00
2015,10,09,00,35,2.60
2015,10,09,00,36,1.80
2015,10,09,00,37,2.60
2015,10,09,00,38,2.70
2015,10,09,00,39,2.40
2015,10,09,00,40,2.60
2015,10,09,00,41,2.60
2015,10,09,00,42,3.90
2015,10,09,00,43,3.90
2015,10,09,00,44,2.30
2015,10,09,00,45,1.30
2015,10,09,00,46,0.00
2015,10,09,00,47,2.30
2015,10,09,00,48,2.90
2015,10,09,00,49,4.30
2015,10,09,00,50,1.70
2015,10,09,00,51,0.20
2015,10,09,00,52,1.20
2015,10,09,00,53,3.10
2015,10,09,00,54,1.90
2015,10,09,00,55,1.60
2015,10,09,00,56,2.30
2015,10,09,00,57,3.00
2015,10,09,00,58,1.10
2015,10,09,00,59,2.10
2015,10,09,01,00,3.70
2015,10,09,01,01,2.50
2015,10,09,01,02,0.70
2015,10,09,01,03,1.70
2015,10,09,01,04,3.20
2015,10,09,01,05,2.90
2015,10,09,01,06,1.20
2015,10,09,01,07,0.00
2015,10,09,01,08,0.00
2015,10,09,01,09,2.10
2015,10,09,01,10,2.20
2015,10,09,01,11,3.00
2015,10,09,01,12,2.20
2015,10,09,01,13,3.80
2015,10,09,01,14,2.70
2015,10,09,01,15,0.40
2015,10,09,01,16,3.60
2015,10,09,01,17,7.90
2015,10,09,01,18,4.50
2015,10,09,01,19,7.70
2015,10,09,01,20,3.50
2015,10,09,01,21,1.80
2015,10,09,01,22,3.70
2015,10,09,01,23,5.10
2015,10,09,01,24,3.80
2015,10,09,01,25,4.60
2015,10,09,01,26,9.40
2015,10,09,01,27,13.20
2015,10,09,01,28,8.90
2015,10,09,01,29,6.30
2015,10,09,01,30,10.10
2015,10,09,01,31,7.30
2015,10,09,01,32,4.00
2015,10,09,01,33,9.10
2015,10,09,01,34,7.10
2015,10,09,01,35,10.70
2015,10,09,01,36,10.90
2015,10,09,01,37,9.40
2015,10,09,01,38,11.30
2015,10,09,01,39,11.00
2015,10,09,01,40,12.20
2015,10,09,01,41,6.60
2015,10,09,01,42,7.10
2015,10,09,01,43,11.90
2015,10,09,01,44,10.30
2015,10,09,01,45,8.50
2015,10,09,01,46,13.90
2015,10,09,01,47,7.70
2015,10,09,01,48,9.80
2015,10,09,01,49,10.90
2015,10,09,01,50,7.30
2015,10,09,01,51,8.70
2015,10,09,01,52,10.80
2015,10,09,01,53,7.50
2015,10,09,01,54,7.10
2015,10,09,01,55,6.40
2015,10,09,01,56,7.60
2015,10,09,01,57,7.30
2015,10,09,01,58,9.80
2015,10,09,01,59,5.80
2015,10,09,02,00,3.80
2015,10,09,02,01,4.30
2015,10,09,02,02,4.30
2015,10,09,02,03,8.40
2015,10,09,02,04,4.80
2015,10,09,02,05,9.40
2015,10,09,02,06,5.00
2015,10,09,02,07,5.80
2015,10,09,02,08,7.90
2015,10,09,02,09,7.50
2015,10,09,02,10,3.30
2015,10,09,02,11,4.50
2015,10,09,02,12,4.80
2015,10,09,02,13,4.50
2015,10,09,02,14,5.20
2015,10,09,02,15,5.70
2015,10,09,02,16,7.20
2015,10,09,02,17,11.00
2015,10,09,02,18,7.20
2015,10,09,02,19,10.60
2015,10,09,02,20,13.00
2015,10,09,02,21,8.60
2015,10,09,02,22,7.00
2015,10,09,02,23,5.60
2015,10,09,02,24,4.30
2015,10,09,02,25,7.70
2015,10,09,02,26,5.80
2015,10,09,02,27,7.50
2015,10,09,02,28,6.30
2015,10,09,02,29,5.50
2015,10,09,02,30,6.20
2015,10,09,02,31,6.00
2015,10,09,02,32,8.60
2015,10,09,02,33,5.70
2015,10,09,02,34,6.30
2015,10,09,02,35,5.70
2015,10,09,02,36,4.90
2015,10,09,02,37,2.50
2015,10,09,02,38,3.70
2015,10,09,02,39,8.90
2015,10,09,02,40,9.40
2015,10,09,02,41,3.80
2015,10,09,02,42,3.90
2015,10,09,02,43,6.30
2015,10,09,02,44,4.80
2015,10,09,02,45,10.00
2015,10,09,02,46,5.50
2015,10,09,02,47,6.30
2015,10,09,02,48,6.60
2015,10,09,02,49,4.30
2015,10,09,02,50,4.50
2015,10,09,02,51,5.40
2015,10,09,02,52,6.80
2015,10,09,02,53,7.00
2015,10,09,02,54,4.20
2015,10,09,02,55,5.80
2015,10,09,02,56,7.50
2015,10,09,02,57,5.20
2015,10,09,02,58,5.80
2015,10,09,02,59,7.80
2015,10,09,03,00,9.10
2015,10,09,03,01,6.10
2015,10,09,03,02,5.20
2015,10,09,03,03,6.20
2015,10,09,03,04,5.10
2015,10,09,03,05,5.50
2015,10,09,03,06,4.10
2015,10,09,03,07,3.10
2015,10,09,03,08,6.70
2015,10,09,03,09,6.50
2015,10,09,03,10,5.50
2015,10,09,03,11,9.10
2015,10,09,03,12,6.10
2015,10,09,03,13,5.70
2015,10,09,03,14,8.20
2015,10,09,03,15,7.50
2015,10,09,03,16,8.90
2015,10,09,03,17,8.90
2015,10,09,03,18,7.20
2015,10,09,03,19,8.40
2015,10,09,03,20,7.60
2015,10,09,03,21,6.30
2015,10,09,03,22,2.40
2015,10,09,03,23,4.00
2015,10,09,03,24,3.30
2015,10,09,03,25,4.20
2015,10,09,03,26,9.40
2015,10,09,03,27,3.90
2015,10,09,03,28,5.50
2015,10,09,03,29,5.60
2015,10,09,03,30,6.70
2015,10,09,03,31,5.00
2015,10,09,03,32,4.50
2015,10,09,03,33,6.90
2015,10,09,03,34,4.90
2015,10,09,03,35,5.60
2015,10,09,03,36,5.20
2015,10,09,03,37,4.30
2015,10,09,03,38,6.70
2015,10,09,03,39,5.60
2015,10,09,03,40,5.10
2015,10,09,03,41,4.30
2015,10,09,03,42,3.50
2015,10,09,03,43,3.80
2015,10,09,03,44,5.10
2015,10,09,03,45,6.10
2015,10,09,03,46,4.50
2015,10,09,03,47,5.30
2015,10,09,03,48,5.80
2015,10,09,03,49,11.00
2015,10,09,03,50,9.70
2015,10,09,03,51,7.50
2015,10,09,03,52,8.90
2015,10,09,03,53,10.50
2015,10,09,03,54,7.50
2015,10,09,03,55,3.40
2015,10,09,03,56,3.80
2015,10,09,03,57,4.60
2015,10,09,03,58,4.80
2015,10,09,03,59,4.60
2015,10,09,04,00,4.70
2015,10,09,04,01,3.60
2015,10,09,04,02,5.40
2015,10,09,04,03,5.90
2015,10,09,04,04,7.60
2015,10,09,04,05,6.30
2015,10,09,04,06,6.50
2015,10,09,04,07,7.90
2015,10,09,04,08,6.60
2015,10,09,04,09,8.90
2015,10,09,04,10,7.80
2015,10,09,04,11,8.90
2015,10,09,04,12,11.60
2015,10,09,04,13,9.80
2015,10,09,04,14,13.80
2015,10,09,04,15,13.40
2015,10,09,04,16,12.20
2015,10,09,04,17,15.30
2015,10,09,04,18,11.30
2015,10,09,04,19,11.90
2015,10,09,04,20,9.20
2015,10,09,04,21,13.70
2015,10,09,04,22,18.40
2015,10,09,04,23,11.90
2015,10,09,04,24,12.00
2015,10,09,04,25,16.50
2015,10,09,04,26,11.00
2015,10,09,04,27,15.70
2015,10,09,04,28,8.60
2015,10,09,04,29,8.00
2015,10,09,04,30,11.40
2015,10,09,04,31,8.20
2015,10,09,04,32,8.60
2015,10,09,04,33,8.50
2015,10,09,04,34,10.40
2015,10,09,04,35,13.40
2015,10,09,04,36,11.60
2015,10,09,04,37,7.50
2015,10,09,04,38,10.20
2015,10,09,04,39,7.40
2015,10,09,04,40,7.00
2015,10,09,04,41,14.20
2015,10,09,04,42,11.30
2015,10,09,04,43,6.90
2015,10,09,04,44,6.90
2015,10,09,04,45,10.30
2015,10,09,04,46,6.90
2015,10,09,04,47,12.90
2015,10,09,04,48,10.30
2015,10,09,04,49,12.60
2015,10,09,04,50,9.70
2015,10,09,04,51,12.30
2015,10,09,04,52,12.30
2015,10,09,04,53,5.10
2015,10,09,04,54,4.10
2015,10,09,04,55,9.80
2015,10,09,04,56,12.10
2015,10,09,04,57,10.30
2015,10,09,04,58,13.60
2015,10,09,04,59,10.60
2015,10,09,05,00,9.00
2015,10,09,05,01,15.80
2015,10,09,05,02,9.80
2015,10,09,05,03,11.70
2015,10,09,05,04,10.30
2015,10,09,05,05,13.90
2015,10,09,05,06,10.50
2015,10,09,05,07,12.40
2015,10,09,05,08,10.00
2015,10,09,05,09,11.40
2015,10,09,05,10,9.70
2015,10,09,05,11,13.60
2015,10,09,05,12,13.30
2015,10,09,05,13,16.70
2015,10,09,05,14,13.40
2015,10,09,05,15,17.00
2015,10,09,05,16,16.80
2015,10,09,05,17,11.30
2015,10,09,05,18,7.80
2015,10,09,05,19,9.00
2015,10,09,05,20,6.40
2015,10,09,05,21,7.30
2015,10,09,05,22,5.40
2015,10,09,05,23,11.80
2015,10,09,05,24,12.70
2015,10,09,05,25,8.90
2015,10,09,05,26,11.00
2015,10,09,05,27,10.30
2015,10,09,05,28,12.60
2015,10,09,05,29,11.00
2015,10,09,05,30,11.40
2015,10,09,05,31,6.70
2015,10,09,05,32,11.20
2015,10,09,05,33,9.70
2015,10,09,05,34,12.90
2015,10,09,05,35,10.40
2015,10,09,05,36,10.70
2015,10,09,05,37,10.00
2015,10,09,05,38,8.90
2015,10,09,05,39,11.40
2015,10,09,05,40,7.60
2015,10,09,05,41,10.80
2015,10,09,05,42,16.60
2015,10,09,05,43,14.30
2015,10,09,05,44,13.20
2015,10,09,05,45,10.60
2015,10,09,05,46,10.20
2015,10,09,05,47,10.10
2015,10,09,05,48,14.50
2015,10,09,05,49,17.00
2015,10,09,05,50,14.50
2015,10,09,05,51,13.50
2015,10,09,05,52,11.40
2015,10,09,05,53,11.30
2015,10,09,05,54,10.70
2015,10,09,05,55,11.50
2015,10,09,05,56,15.30
2015,10,09,05,57,13.00
2015,10,09,05,58,11.10
2015,10,09,05,59,13.50
2015,10,09,06,00,13.50
2015,10,09,06,01,12.20
2015,10,09,06,02,8.60
2015,10,09,06,03,12.60
2015,10,09,06,04,12.20
2015,10,09,06,05,12.00
2015,10,09,06,06,7.00
2015,10,09,06,07,6.00
2015,10,09,06,08,10.80
2015,10,09,06,09,14.70
2015,10,09,06,10,12.10
2015,10,09,06,11,13.30
2015,10,09,06,12,11.80
2015,10,09,06,13,10.60
2015,10,09,06,14,10.30
2015,10,09,06,15,13.50
2015,10,09,06,16,13.10
2015,10,09,06,17,9.00
2015,10,09,06,18,4.90
2015,10,09,06,19,4.10
2015,10,09,06,20,4.80
2015,10,09,06,21,11.90
2015,10,09,06,22,5.80
2015,10,09,06,23,9.30
2015,10,09,06,24,5.90
2015,10,09,06,25,4.50
2015,10,09,06,26,4.50
2015,10,09,06,27,3.30
2015,10,09,06,28,5.10
2015,10,09,06,29,11.30
2015,10,09,06,30,8.60
2015,10,09,06,31,8.10
2015,10,09,06,32,12.40
2015,10,09,06,33,10.30
2015,10,09,06,34,9.80
2015,10,09,06,35,7.80
2015,10,09,06,36,7.70
2015,10,09,06,37,5.60
2015,10,09,06,38,15.10
2015,10,09,06,39,6.00
2015,10,09,06,40,6.10
2015,10,09,06,41,9.80
2015,10,09,06,42,7.00
2015,10,09,06,43,4.50
2015,10,09,06,44,9.10
2015,10,09,06,45,3.80
2015,10,09,06,46,10.30
2015,10,09,06,47,9.20
2015,10,09,06,48,9.50
2015,10,09,06,49,11.20
2015,10,09,06,50,13.20
2015,10,09,06,51,5.80
2015,10,09,06,52,9.20
2015,10,09,06,53,15.70
2015,10,09,06,54,14.20
2015,10,09,06,55,12.60
2015,10,09,06,56,10.90
2015,10,09,06,57,15.70
2015,10,09,06,58,12.20
2015,10,09,06,59,10.80
2015,10,09,07,00,15.90
2015,10,09,07,01,10.60
2015,10,09,07,02,5.40
2015,10,09,07,03,5.40
2015,10,09,07,04,4.00
2015,10,09,07,05,5.40
2015,10,09,07,06,8.20
2015,10,09,07,07,9.40
2015,10,09,07,08,8.10
2015,10,09,07,09,9.30
2015,10,09,07,10,7.60
2015,10,09,07,11,8.90
2015,10,09,07,12,9.70
2015,10,09,07,13,9.70
2015,10,09,07,14,6.80
2015,10,09,07,15,8.70
2015,10,09,07,16,13.80
2015,10,09,07,17,7.90
2015,10,09,07,18,8.70
2015,10,09,07,19,11.40
2015,10,09,07,20,11.90
2015,10,09,07,21,11.40
2015,10,09,07,22,10.90
2015,10,09,07,23,10.80
2015,10,09,07,24,15.40
2015,10,09,07,25,12.50
2015,10,09,07,26,9.20
2015,10,09,07,27,6.70
2015,10,09,07,28,10.00
2015,10,09,07,29,11.90
2015,10,09,07,30,13.10
2015,10,09,07,31,14.40
2015,10,09,07,32,16.50
2015,10,09,07,33,16.70
2015,10,09,07,34,12.30
2015,10,09,07,35,12.90
2015,10,09,07,36,13.00
2015,10,09,07,37,10.20
2015,10,09,07,38,15.90
2015,10,09,07,39,12.30
2015,10,09,07,40,11.80
2015,10,09,07,41,18.80
2015,10,09,07,42,12.30
2015,10,09,07,43,14.00
2015,10,09,07,44,15.70
2015,10,09,07,45,15.80
2015,10,09,07,46,16.20
2015,10,09,07,47,11.90
2015,10,09,07,48,15.40
2015,10,09,07,49,14.50
2015,10,09,07,50,18.30
2015,10,09,07,51,11.20
2015,10,09,07,52,11.90
2015,10,09,07,53,14.70
2015,10,09,07,54,9.70
2015,10,09,07,55,14.10
2015,10,09,07,56,12.80
2015,10,09,07,57,13.50
2015,10,09,07,58,13.20
2015,10,09,07,59,8.50
2015,10,09,08,00,15.70
2015,10,09,08,01,15.60
2015,10,09,08,02,16.30
2015,10,09,08,03,12.20
2015,10,09,08,04,14.00
2015,10,09,08,05,16.00
2015,10,09,08,06,17.80
2015,10,09,08,07,8.10
2015,10,09,08,08,7.70
2015,10,09,08,09,16.00
2015,10,09,08,10,10.60
2015,10,09,08,11,16.00
2015,10,09,08,12,11.10
2015,10,09,08,13,5.40
2015,10,09,08,14,10.70
2015,10,09,08,15,13.60
2015,10,09,08,16,9.70
2015,10,09,08,17,12.50
2015,10,09,08,18,7.30
2015,10,09,08,19,6.70
2015,10,09,08,20,9.20
2015,10,09,08,21,17.00
2015,10,09,08,22,13.40
2015,10,09,08,23,6.80
2015,10,09,08,24,13.80
2015,10,09,08,25,12.80
2015,10,09,08,26,12.30
2015,10,09,08,27,8.90
2015,10,09,08,28,13.80
2015,10,09,08,29,11.90
2015,10,09,08,30,13.50
2015,10,09,08,31,9.80
2015,10,09,08,32,12.30
2015,10,09,08,33,17.00
2015,10,09,08,34,14.00
2015,10,09,08,35,15.60
2015,10,09,08,36,15.80
2015,10,09,08,37,11.60
2015,10,09,08,38,11.00
2015,10,09,08,39,10.00
2015,10,09,08,40,11.60
2015,10,09,08,41,14.80
2015,10,09,08,42,8.60
2015,10,09,08,43,8.80
2015,10,09,08,44,15.60
2015,10,09,08,45,10.20
2015,10,09,08,46,15.50
2015,10,09,08,47,15.60
2015,10,09,08,48,10.90
2015,10,09,08,49,8.40
2015,10,09,08,50,14.20
2015,10,09,08,51,6.60
2015,10,09,08,52,10.60
2015,10,09,08,53,7.90
2015,10,09,08,54,6.40
2015,10,09,08,55,6.30
2015,10,09,08,56,10.70
2015,10,09,08,57,8.30
2015,10,09,08,58,9.40
2015,10,09,08,59,15.60
2015,10,09,09,00,11.90
2015,10,09,09,01,14.10
2015,10,09,09,02,11.30
2015,10,09,09,03,10.40
2015,10,09,09,04,15.00
2015,10,09,09,05,11.70
2015,10,09,09,06,8.50
2015,10,09,09,07,5.80
2015,10,09,09,08,14.20
2015,10,09,09,09,11.60
2015,10,09,09,10,11.30
2015,10,09,09,11,13.20
2015,10,09,09,12,10.00
2015,10,09,09,13,6.10
2015,10,09,09,14,8.50
2015,10,09,09,15,6.60
2015,10,09,09,16,10.00
2015,10,09,09,17,10.70
2015,10,09,09,18,6.30
2015,10,09,09,19,5.60
2015,10,09,09,20,7.60
2015,10,09,09,21,9.30
2015,10,09,09,22,8.70
2015,10,09,09,23,6.10
2015,10,09,09,24,4.20
2015,10,09,09,25,4.10
2015,10,09,09,26,6.50
2015,10,09,09,27,6.70
2015,10,09,09,28,8.10
2015,10,09,09,29,8.00
2015,10,09,09,30,3.40
2015,10,09,09,31,2.60
2015,10,09,09,32,6.30
2015,10,09,09,33,2.90
2015,10,09,09,34,4.60
2015,10,09,09,35,9.20
2015,10,09,09,36,8.80
2015,10,09,09,37,6.60
2015,10,09,09,38,5.40
2015,10,09,09,39,6.30
2015,10,09,09,40,4.80
2015,10,09,09,41,3.80
2015,10,09,09,42,4.10
2015,10,09,09,43,5.40
2015,10,09,09,44,7.50
2015,10,09,09,45,9.60
2015,10,09,09,46,6.00
2015,10,09,09,47,8.80
2015,10,09,09,48,5.80
2015,10,09,09,49,6.90
2015,10,09,09,50,9.10
2015,10,09,09,51,6.40
2015,10,09,09,52,9.50
2015,10,09,09,53,6.20
2015,10,09,09,54,5.70
2015,10,09,09,55,13.00
2015,10,09,09,56,7.60
2015,10,09,09,57,13.10
2015,10,09,09,58,9.20
2015,10,09,09,59,8.60
2015,10,09,10,00,11.30
2015,10,09,10,01,8.70
2015,10,09,10,02,10.90
2015,10,09,10,03,8.70
2015,10,09,10,04,11.10
2015,10,09,10,05,14.30
2015,10,09,10,06,9.50
2015,10,09,10,07,14.20
2015,10,09,10,08,11.60
2015,10,09,10,09,11.10
2015,10,09,10,10,12.10
2015,10,09,10,11,10.50
2015,10,09,10,12,13.80
2015,10,09,10,13,7.00
2015,10,09,10,14,6.90
2015,10,09,10,15,4.80
2015,10,09,10,16,7.80
2015,10,09,10,17,9.20
2015,10,09,10,18,13.30
2015,10,09,10,19,6.10
2015,10,09,10,20,8.50
2015,10,09,10,21,2.90
2015,10,09,10,22,5.80
2015,10,09,10,23,8.60
2015,10,09,10,24,7.40
2015,10,09,10,25,9.30
2015,10,09,10,26,8.90
2015,10,09,10,27,8.40
2015,10,09,10,28,8.10
2015,10,09,10,29,5.40
2015,10,09,10,30,4.00
2015,10,09,10,31,9.50
2015,10,09,10,32,14.00
2015,10,09,10,33,10.90
2015,10,09,10,34,12.10
2015,10,09,10,35,11.20
2015,10,09,10,36,11.80
2015,10,09,10,37,11.00
2015,10,09,10,38,5.90
2015,10,09,10,39,5.50
2015,10,09,10,40,7.40
2015,10,09,10,41,8.90
2015,10,09,10,42,10.30
2015,10,09,10,43,9.30
2015,10,09,10,44,5.80
2015,10,09,10,45,13.40
2015,10,09,10,46,14.40
2015,10,09,10,47,14.30
2015,10,09,10,48,10.20
2015,10,09,10,49,14.10
2015,10,09,10,50,12.50
2015,10,09,10,51,11.20
2015,10,09,10,52,13.80
2015,10,09,10,53,11.40
2015,10,09,10,54,15.00
2015,10,09,10,55,16.30
2015,10,09,10,56,17.90
2015,10,09,10,57,16.30
2015,10,09,10,58,9.10
2015,10,09,10,59,13.30
2015,10,09,11,00,14.10
2015,10,09,11,01,18.90
2015,10,09,11,02,13.50
2015,10,09,11,03,16.50
2015,10,09,11,04,8.00
2015,10,09,11,05,11.00
2015,10,09,11,06,15.40
2015,10,09,11,07,15.40
2015,10,09,11,08,12.60
2015,10,09,11,09,11.30
2015,10,09,11,10,16.20
2015,10,09,11,11,18.10
2015,10,09,11,12,12.90
2015,10,09,11,13,14.90
2015,10,09,11,14,17.40
2015,10,09,11,15,11.70
2015,10,09,11,16,14.40
2015,10,09,11,17,14.10
2015,10,09,11,18,13.40
2015,10,09,11,19,20.40
2015,10,09,11,20,14.50
2015,10,09,11,21,16.30
2015,10,09,11,22,9.50
2015,10,09,11,23,16.60
2015,10,09,11,24,14.10
2015,10,09,11,25,14.80
2015,10,09,11,26,15.00
2015,10,09,11,27,17.80
2015,10,09,11,28,11.60
2015,10,09,11,29,13.90
2015,10,09,11,30,15.10
2015,10,09,11,31,7.80
2015,10,09,11,32,11.70
2015,10,09,11,33,17.80
2015,10,09,11,34,18.50
2015,10,09,11,35,14.40
2015,10,09,11,36,12.20
2015,10,09,11,37,12.80
2015,10,09,11,38,13.50
2015,10,09,11,39,16.80
2015,10,09,11,40,16.90
2015,10,09,11,41,15.50
2015,10,09,11,42,12.60
2015,10,09,11,43,10.30
2015,10,09,11,44,12.30
2015,10,09,11,45,15.30
2015,10,09,11,46,12.90
2015,10,09,11,47,10.30
2015,10,09,11,48,12.20
2015,10,09,11,49,8.00
2015,10,09,11,50,16.40
2015,10,09,11,51,12.90
2015,10,09,11,52,9.90
2015,10,09,11,53,8.90
2015,10,09,11,54,7.40
2015,10,09,11,55,15.70
2015,10,09,11,56,16.80
2015,10,09,11,57,13.90
2015,10,09,11,58,13.90
2015,10,09,11,59,15.80
2015,10,09,12,00,12.40
2015,10,09,12,01,8.70
2015,10,09,12,02,6.10
2015,10,09,12,03,10.30
2015,10,09,12,04,13.10
2015,10,09,12,05,11.00
2015,10,09,12,06,12.30
2015,10,09,12,07,4.50
2015,10,09,12,08,10.00
2015,10,09,12,09,10.50
2015,10,09,12,10,12.20
2015,10,09,12,11,11.80
2015,10,09,12,12,11.40
2015,10,09,12,13,10.90
2015,10,09,12,14,10.40
2015,10,09,12,15,12.20
2015,10,09,12,16,14.50
2015,10,09,12,17,12.90
2015,10,09,12,18,14.30
2015,10,09,12,19,14.20
2015,10,09,12,20,12.30
2015,10,09,12,21,16.30
2015,10,09,12,22,10.90
2015,10,09,12,23,15.00
2015,10,09,12,24,20.90
2015,10,09,12,25,15.90
2015,10,09,12,26,16.70
2015,10,09,12,27,14.80
2015,10,09,12,28,12.30
2015,10,09,12,29,12.60
2015,10,09,12,30,13.00
2015,10,09,12,31,14.70
2015,10,09,12,32,17.50
2015,10,09,12,33,15.90
2015,10,09,12,34,13.90
2015,10,09,12,35,12.90
2015,10,09,12,36,15.00
2015,10,09,12,37,14.10
2015,10,09,12,38,15.00
2015,10,09,12,39,14.40
2015,10,09,12,40,15.90
2015,10,09,12,41,17.50
2015,10,09,12,42,16.90
2015,10,09,12,43,14.20
2015,10,09,12,44,12.20
2015,10,09,12,45,8.70
2015,10,09,12,46,12.90
2015,10,09,12,47,14.40
2015,10,09,12,48,11.80
2015,10,09,12,49,11.20
2015,10,09,12,50,9.80
2015,10,09,12,51,7.90
2015,10,09,12,52,11.90
2015,10,09,12,53,14.00
2015,10,09,12,54,15.90
2015,10,09,12,55,15.40
2015,10,09,12,56,14.40
2015,10,09,12,57,16.00
2015,10,09,12,58,14.00
2015,10,09,12,59,10.20
2015,10,09,13,00,11.00
2015,10,09,13,01,12.20
2015,10,09,13,02,14.80
2015,10,09,13,03,12.30
2015,10,09,13,04,15.10
2015,10,09,13,05,10.70
2015,10,09,13,06,15.40
2015,10,09,13,07,17.30
2015,10,09,13,08,15.40
2015,10,09,13,09,18.00
2015,10,09,13,10,17.20
2015,10,09,13,11,10.10
2015,10,09,13,12,12.30
2015,10,09,13,13,16.70
2015,10,09,13,14,14.50
2015,10,09,13,15,11.30
2015,10,09,13,16,16.60
2015,10,09,13,17,13.30
2015,10,09,13,18,13.30
2015,10,09,13,19,14.10
2015,10,09,13,20,13.30
2015,10,09,13,21,17.20
2015,10,09,13,22,17.90
2015,10,09,13,23,14.70
2015,10,09,13,24,21.80
2015,10,09,13,25,17.80
2015,10,09,13,26,14.80
2015,10,09,13,27,16.30
2015,10,09,13,28,18.50
2015,10,09,13,29,14.80
2015,10,09,13,30,16.50
2015,10,09,13,31,16.80
2015,10,09,13,32,7.70
2015,10,09,13,33,11.60
2015,10,09,13,34,11.30
2015,10,09,13,35,12.80
2015,10,09,13,36,12.90
2015,10,09,13,37,12.00
2015,10,09,13,38,12.30
2015,10,09,13,39,14.70
2015,10,09,13,40,11.60
2015,10,09,13,41,7.80
2015,10,09,13,42,17.00
2015,10,09,13,43,14.50
2015,10,09,13,44,11.20
2015,10,09,13,45,16.00
2015,10,09,13,46,14.90
2015,10,09,13,47,18.10
2015,10,09,13,48,12.90
2015,10,09,13,49,12.20
2015,10,09,13,50,14.40
2015,10,09,13,51,16.10
2015,10,09,13,52,14.10
2015,10,09,13,53,13.00
2015,10,09,13,54,12.80
2015,10,09,13,55,12.50
2015,10,09,13,56,13.10
2015,10,09,13,57,12.80
2015,10,09,13,58,11.90
2015,10,09,13,59,14.30
2015,10,09,14,00,20.50
2015,10,09,14,01,12.50
2015,10,09,14,02,13.90
2015,10,09,14,03,14.60
2015,10,09,14,04,21.80
2015,10,09,14,05,16.20
2015,10,09,14,06,18.50
2015,10,09,14,07,14.70
2015,10,09,14,08,12.00
2015,10,09,14,09,14.60
2015,10,09,14,10,18.10
2015,10,09,14,11,15.70
2015,10,09,14,12,14.80
2015,10,09,14,13,12.60
2015,10,09,14,14,20.60
2015,10,09,14,15,18.10
2015,10,09,14,16,22.80
2015,10,09,14,17,12.80
2015,10,09,14,18,11.60
2015,10,09,14,19,17.70
2015,10,09,14,20,17.80
2015,10,09,14,21,18.80
2015,10,09,14,22,15.40
2015,10,09,14,23,13.90
2015,10,09,14,24,24.90
2015,10,09,14,25,20.30
2015,10,09,14,26,15.40
2015,10,09,14,27,22.20
2015,10,09,14,28,21.20
2015,10,09,14,29,14.10
2015,10,09,14,30,17.50
2015,10,09,14,31,18.00
2015,10,09,14,32,16.50
2015,10,09,14,33,14.40
2015,10,09,14,34,16.20
2015,10,09,14,35,19.20
2015,10,09,14,36,15.80
2015,10,09,14,37,15.60
2015,10,09,14,38,18.30
2015,10,09,14,39,16.70
2015,10,09,14,40,18.40
2015,10,09,14,41,11.70
2015,10,09,14,42,12.80
2015,10,09,14,43,11.50
2015,10,09,14,44,9.20
2015,10,09,14,45,11.90
2015,10,09,14,46,11.00
2015,10,09,14,47,24.10
2015,10,09,14,48,13.80
2015,10,09,14,49,19.80
2015,10,09,14,50,19.30
2015,10,09,14,51,16.70
2015,10,09,14,52,16.80
2015,10,09,14,53,22.20
2015,10,09,14,54,17.70
2015,10,09,14,55,18.00
2015,10,09,14,56,15.20
2015,10,09,14,57,14.90
2015,10,09,14,58,17.00
2015,10,09,14,59,13.70
2015,10,09,15,00,12.20
2015,10,09,15,01,15.70
2015,10,09,15,02,15.10
2015,10,09,15,03,19.00
2015,10,09,15,04,11.10
2015,10,09,15,05,16.90
2015,10,09,15,06,16.50
2015,10,09,15,07,16.10
2015,10,09,15,08,14.00
2015,10,09,15,09,18.80
2015,10,09,15,10,16.40
2015,10,09,15,11,25.40
2015,10,09,15,12,16.00
2015,10,09,15,13,9.70
2015,10,09,15,14,12.80
2015,10,09,15,15,14.80
2015,10,09,15,16,15.80
2015,10,09,15,17,17.50
2015,10,09,15,18,12.20
2015,10,09,15,19,14.80
2015,10,09,15,20,10.20
2015,10,09,15,21,13.10
2015,10,09,15,22,12.60
2015,10,09,15,23,11.90
2015,10,09,15,24,12.80
2015,10,09,15,25,17.60
2015,10,09,15,26,14.80
2015,10,09,15,27,14.20
2015,10,09,15,28,17.60
2015,10,09,15,29,13.80
2015,10,09,15,30,12.90
2015,10,09,15,31,12.20
2015,10,09,15,32,10.40
2015,10,09,15,33,8.60
2015,10,09,15,34,8.80
2015,10,09,15,35,10.70
2015,10,09,15,36,16.30
2015,10,09,15,37,12.20
2015,10,09,15,38,17.00
2015,10,09,15,39,17.20
2015,10,09,15,40,19.80
2015,10,09,15,41,22.80
2015,10,09,15,42,19.20
2015,10,09,15,43,14.80
2015,10,09,15,44,14.00
2015,10,09,15,45,12.20
2015,10,09,15,46,15.10
2015,10,09,15,47,12.80
2015,10,09,15,48,15.70
2015,10,09,15,49,19.90
2015,10,09,15,50,16.60
2015,10,09,15,51,11.10
2015,10,09,15,52,9.40
2015,10,09,15,53,16.20
2015,10,09,15,54,14.10
2015,10,09,15,55,17.80
2015,10,09,15,56,22.10
2015,10,09,15,57,21.50
2015,10,09,15,58,22.10
2015,10,09,15,59,22.20
2015,10,09,16,00,17.70
2015,10,09,16,01,14.20
2015,10,09,16,02,13.90
2015,10,09,16,03,11.20
2015,10,09,16,04,12.30
2015,10,09,16,05,15.30
2015,10,09,16,06,17.10
2015,10,09,16,07,14.30
2015,10,09,16,08,15.30
2015,10,09,16,09,14.20
2015,10,09,16,10,18.40
2015,10,09,16,11,16.60
2015,10,09,16,12,19.70
2015,10,09,16,13,15.90
2015,10,09,16,14,12.60
2015,10,09,16,15,15.50
2015,10,09,16,16,14.70
2015,10,09,16,17,15.90
2015,10,09,16,18,13.10
2015,10,09,16,19,18.60
2015,10,09,16,20,16.60
2015,10,09,16,21,11.90
2015,10,09,16,22,12.30
2015,10,09,16,23,12.80
2015,10,09,16,24,13.90
2015,10,09,16,25,15.70
2015,10,09,16,26,16.00
2015,10,09,16,27,11.60
2015,10,09,16,28,12.30
2015,10,09,16,29,10.70
2015,10,09,16,30,13.60
2015,10,09,16,31,16.20
2015,10,09,16,32,12.60
2015,10,09,16,33,13.20
2015,10,09,16,34,12.00
2015,10,09,16,35,14.70
2015,10,09,16,36,13.20
2015,10,09,16,37,16.20
2015,10,09,16,38,17.20
2015,10,09,16,39,8.50
2015,10,09,16,40,12.50
2015,10,09,16,41,14.70
2015,10,09,16,42,8.80
2015,10,09,16,43,7.40
2015,10,09,16,44,12.00
2015,10,09,16,45,14.00
2015,10,09,16,46,17.60
2015,10,09,16,47,11.00
2015,10,09,16,48,14.00
2015,10,09,16,49,17.70
2015,10,09,16,50,14.40
2015,10,09,16,51,16.10
2015,10,09,16,52,19.80
2015,10,09,16,53,13.90
2015,10,09,16,54,15.10
2015,10,09,16,55,16.70
2015,10,09,16,56,18.30
2015,10,09,16,57,17.10
2015,10,09,16,58,16.10
2015,10,09,16,59,18.80
2015,10,09,17,00,11.10
2015,10,09,17,01,21.80
2015,10,09,17,02,18.80
2015,10,09,17,03,12.50
2015,10,09,17,04,13.40
2015,10,09,17,05,15.10
2015,10,09,17,06,11.00
2015,10,09,17,07,7.40
2015,10,09,17,08,11.70
2015,10,09,17,09,7.00
2015,10,09,17,10,8.30
2015,10,09,17,11,11.00
2015,10,09,17,12,9.60
2015,10,09,17,13,11.60
2015,10,09,17,14,9.70
2015,10,09,17,15,7.80
2015,10,09,17,16,10.60
2015,10,09,17,17,15.10
2015,10,09,17,18,12.00
2015,10,09,17,19,13.30
2015,10,09,17,20,9.10
2015,10,09,17,21,10.40
2015,10,09,17,22,10.80
2015,10,09,17,23,13.60
2015,10,09,17,24,20.30
2015,10,09,17,25,20.10
2015,10,09,17,26,12.70
2015,10,09,17,27,17.30
2015,10,09,17,28,17.80
2015,10,09,17,29,10.20
2015,10,09,17,30,10.90
2015,10,09,17,31,14.00
2015,10,09,17,32,12.90
2015,10,09,17,33,16.30
2015,10,09,17,34,18.30
2015,10,09,17,35,15.60
2015,10,09,17,36,15.30
2015,10,09,17,37,19.20
2015,10,09,17,38,23.10